M I D A S
Marine Information and Data Acquisition System
Tripno 1496 of the Zeeleeuw from 2008-05-30 07:44:21 to 2008-05-30 14:10:02
Back to CruiseResearch ActivitiesStationsMapUnderway DataData graphs

EquipmentUnitsComments
TimeDGPSUTC
LatitudeDGPSDM.mWGS84
LongitudeDGPSDM.mWGS84
SpeedMeteo Stationm/sRelative wind speed
DirectionMeteo StationdegRelative wind direction
TemperatureMeteo Stationdeg CelciusAir temperature
PressureMeteo StationPaAtmospheric pressure
HumidityMeteo Station%Relative humidity
Missing or incorrect values are displayed as -999
Metereological data collected by the RV Zeeleeuw from 2008-05-30 07:44:13 to 2008-05-30 14:15:19
Time Latitude Longitude Speed Direction Temperature Pressure Humidity
2008-05-30 07:45 51°13.628 2°56.027 -999 -999 -999 -999 -999
2008-05-30 07:46 51°13.655 2°55.925 -999 -999 -999 -999 -999
2008-05-30 07:47 51°13.697 2°55.811 -999 -999 -999 -999 -999
2008-05-30 07:48 51°13.758 2°55.708 -999 -999 -999 -999 -999
2008-05-30 07:49 51°13.838 2°55.642 -999 -999 -999 -999 -999
2008-05-30 07:50 51°13.92 2°55.635 -999 -999 -999 -999 -999
2008-05-30 07:51 51°13.955 2°55.661 -999 -999 -999 -999 -999
2008-05-30 07:52 51°13.979 2°55.574 -999 -999 -999 -999 -999
2008-05-30 07:53 51°14.05 2°55.5 -999 -999 -999 -999 -999
2008-05-30 07:54 51°14.134 2°55.437 -999 -999 -999 -999 -999
2008-05-30 07:55 51°14.214 2°55.364 -999 -999 -999 -999 -999
2008-05-30 07:56 51°14.28 2°55.251 -999 -999 -999 -999 -999
2008-05-30 07:57 51°14.372 2°55.076 -999 -999 -999 -999 -999
2008-05-30 07:58 51°14.532 2°54.897 -999 -999 -999 -999 -999
2008-05-30 07:59 51°14.723 2°54.77 -999 -999 -999 -999 -999
2008-05-30 08:00 51°14.914 2°54.642 -999 -999 -999 -999 -999
2008-05-30 08:01 51°15.102 2°54.502 -999 -999 -999 -999 -999
2008-05-30 08:02 51°15.289 2°54.36 -999 -999 -999 -999 -999
2008-05-30 08:03 51°15.471 2°54.211 -999 -999 -999 -999 -999
2008-05-30 08:04 51°15.642 2°54.039 -999 -999 -999 -999 -999
2008-05-30 08:05 51°15.818 2°53.875 -999 -999 -999 -999 -999
2008-05-30 08:06 51°15.996 2°53.715 -999 -999 -999 -999 -999
2008-05-30 08:07 51°16.172 2°53.553 -999 -999 -999 -999 -999
2008-05-30 08:08 51°16.354 2°53.403 -999 -999 -999 -999 -999
2008-05-30 08:09 51°16.541 2°53.266 -999 -999 -999 -999 -999
2008-05-30 08:10 51°16.72 2°53.104 -999 -999 -999 -999 -999
2008-05-30 08:11 51°16.894 2°52.935 -999 -999 -999 -999 -999
2008-05-30 08:12 51°17.057 2°52.748 -999 -999 -999 -999 -999
2008-05-30 08:13 51°17.227 2°52.567 -999 -999 -999 -999 -999
2008-05-30 08:14 51°17.41 2°52.42 -999 -999 -999 -999 -999
2008-05-30 08:15 51°17.622 2°52.378 -999 -999 -999 -999 -999
2008-05-30 08:16 51°17.838 2°52.363 -999 -999 -999 -999 -999
2008-05-30 08:17 51°18.053 2°52.387 -999 -999 -999 -999 -999
2008-05-30 08:18 51°18.263 2°52.487 -999 -999 -999 -999 -999
2008-05-30 08:19 51°18.467 2°52.628 -999 -999 -999 -999 -999
2008-05-30 08:20 51°18.672 2°52.76 -999 -999 -999 -999 -999
2008-05-30 08:21 51°18.881 2°52.88 -999 -999 -999 -999 -999
2008-05-30 08:22 51°19.092 2°52.981 -999 -999 -999 -999 -999
2008-05-30 08:23 51°19.263 2°53.067 -999 -999 -999 -999 -999
2008-05-30 08:24 51°19.353 2°53.055 -999 -999 -999 -999 -999
2008-05-30 08:25 51°19.35 2°52.926 -999 -999 -999 -999 -999
2008-05-30 08:26 51°19.339 2°52.764 -999 -999 -999 -999 -999
2008-05-30 08:27 51°19.336 2°52.673 -999 -999 -999 -999 -999
2008-05-30 08:28 51°19.341 2°52.611 -999 -999 -999 -999 -999
2008-05-30 08:29 51°19.344 2°52.552 -999 -999 -999 -999 -999
2008-05-30 08:30 51°19.339 2°52.502 -999 -999 -999 -999 -999
2008-05-30 08:31 51°19.331 2°52.481 -999 -999 -999 -999 -999
2008-05-30 08:32 51°19.325 2°52.48 -999 -999 -999 -999 -999
2008-05-30 08:33 51°19.322 2°52.487 -999 -999 -999 -999 -999
2008-05-30 08:34 51°19.319 2°52.494 -999 -999 -999 -999 -999
2008-05-30 08:35 51°19.314 2°52.496 -999 -999 -999 -999 -999
2008-05-30 08:36 51°19.308 2°52.496 -999 -999 -999 -999 -999
2008-05-30 08:37 51°19.306 2°52.494 -999 -999 -999 -999 -999
2008-05-30 08:38 51°19.303 2°52.493 -999 -999 -999 -999 -999
2008-05-30 08:39 51°19.301 2°52.491 -999 -999 -999 -999 -999
2008-05-30 08:40 51°19.298 2°52.489 -999 -999 -999 -999 -999
2008-05-30 08:41 51°19.295 2°52.488 -999 -999 -999 -999 -999
2008-05-30 08:42 51°19.294 2°52.484 -999 -999 -999 -999 -999
2008-05-30 08:43 51°19.3 2°52.481 -999 -999 -999 -999 -999
2008-05-30 08:44 51°19.31 2°52.478 -999 -999 -999 -999 -999
2008-05-30 08:45 51°19.318 2°52.475 -999 -999 -999 -999 -999
2008-05-30 08:46 51°19.316 2°52.478 -999 -999 -999 -999 -999
2008-05-30 08:47 51°19.314 2°52.481 -999 -999 -999 -999 -999
2008-05-30 08:48 51°19.313 2°52.482 -999 -999 -999 -999 -999
2008-05-30 08:49 51°19.314 2°52.482 -999 -999 -999 -999 -999
2008-05-30 08:50 51°19.316 2°52.484 -999 -999 -999 -999 -999
2008-05-30 08:51 51°19.318 2°52.486 -999 -999 -999 -999 -999
2008-05-30 08:52 51°19.321 2°52.486 -999 -999 -999 -999 -999
2008-05-30 08:53 51°19.325 2°52.485 -999 -999 -999 -999 -999
2008-05-30 08:54 51°19.326 2°52.485 -999 -999 -999 -999 -999
2008-05-30 08:55 51°19.323 2°52.487 -999 -999 -999 -999 -999
2008-05-30 08:56 51°19.318 2°52.49 -999 -999 -999 -999 -999
2008-05-30 08:57 51°19.312 2°52.492 -999 -999 -999 -999 -999
2008-05-30 08:58 51°19.307 2°52.495 -999 -999 -999 -999 -999
2008-05-30 08:59 51°19.302 2°52.496 -999 -999 -999 -999 -999
2008-05-30 09:00 51°19.301 2°52.493 -999 -999 -999 -999 -999
2008-05-30 09:01 51°19.304 2°52.49 -999 -999 -999 -999 -999
2008-05-30 09:02 51°19.308 2°52.486 -999 -999 -999 -999 -999
2008-05-30 09:03 51°19.313 2°52.483 -999 -999 -999 -999 -999
2008-05-30 09:04 51°19.317 2°52.48 -999 -999 -999 -999 -999
2008-05-30 09:05 51°19.319 2°52.477 -999 -999 -999 -999 -999
2008-05-30 09:06 51°19.317 2°52.475 -999 -999 -999 -999 -999
2008-05-30 09:07 51°19.313 2°52.474 -999 -999 -999 -999 -999
2008-05-30 09:08 51°19.309 2°52.472 -999 -999 -999 -999 -999
2008-05-30 09:09 51°19.306 2°52.469 -999 -999 -999 -999 -999
2008-05-30 09:10 51°19.305 2°52.468 -999 -999 -999 -999 -999
2008-05-30 09:11 51°19.302 2°52.468 -999 -999 -999 -999 -999
2008-05-30 09:12 51°19.3 2°52.468 -999 -999 -999 -999 -999
2008-05-30 09:13 51°19.3 2°52.467 -999 -999 -999 -999 -999
2008-05-30 09:14 51°19.301 2°52.466 -999 -999 -999 -999 -999
2008-05-30 09:15 51°19.305 2°52.462 -999 -999 -999 -999 -999
2008-05-30 09:16 51°19.313 2°52.458 -999 -999 -999 -999 -999
2008-05-30 09:17 51°19.324 2°52.452 -999 -999 -999 -999 -999
2008-05-30 09:18 51°19.333 2°52.448 -999 -999 -999 -999 -999
2008-05-30 09:19 51°19.338 2°52.461 -999 -999 -999 -999 -999
2008-05-30 09:20 51°19.343 2°52.486 -999 -999 -999 -999 -999
2008-05-30 09:21 51°19.348 2°52.515 -999 -999 -999 -999 -999
2008-05-30 09:22 51°19.352 2°52.544 -999 -999 -999 -999 -999
2008-05-30 09:23 51°19.359 2°52.577 -999 -999 -999 -999 -999
2008-05-30 09:24 51°19.363 2°52.608 -999 -999 -999 -999 -999
2008-05-30 09:25 51°19.362 2°52.58 -999 -999 -999 -999 -999
2008-05-30 09:26 51°19.373 2°52.415 -999 -999 -999 -999 -999
2008-05-30 09:27 51°19.346 2°52.146 -999 -999 -999 -999 -999
2008-05-30 09:28 51°19.335 2°51.844 -999 -999 -999 -999 -999
2008-05-30 09:29 51°19.333 2°51.543 -999 -999 -999 -999 -999
2008-05-30 09:30 51°19.34 2°51.24 -999 -999 -999 -999 -999
2008-05-30 09:31 51°19.345 2°50.939 -999 -999 -999 -999 -999
2008-05-30 09:32 51°19.349 2°50.639 -999 -999 -999 -999 -999
2008-05-30 09:33 51°19.357 2°50.338 -999 -999 -999 -999 -999
2008-05-30 09:34 51°19.371 2°50.045 -999 -999 -999 -999 -999
2008-05-30 09:35 51°19.378 2°49.743 -999 -999 -999 -999 -999
2008-05-30 09:36 51°19.385 2°49.446 -999 -999 -999 -999 -999
2008-05-30 09:37 51°19.397 2°49.149 -999 -999 -999 -999 -999
2008-05-30 09:38 51°19.406 2°48.852 -999 -999 -999 -999 -999
2008-05-30 09:39 51°19.417 2°48.561 -999 -999 -999 -999 -999
2008-05-30 09:40 51°19.433 2°48.261 -999 -999 -999 -999 -999
2008-05-30 09:41 51°19.442 2°47.966 -999 -999 -999 -999 -999
2008-05-30 09:42 51°19.449 2°47.662 -999 -999 -999 -999 -999
2008-05-30 09:43 51°19.456 2°47.369 -999 -999 -999 -999 -999
2008-05-30 09:44 51°19.467 2°47.064 -999 -999 -999 -999 -999
2008-05-30 09:45 51°19.477 2°46.771 -999 -999 -999 -999 -999
2008-05-30 09:46 51°19.484 2°46.467 -999 -999 -999 -999 -999
2008-05-30 09:47 51°19.491 2°46.169 -999 -999 -999 -999 -999
2008-05-30 09:48 51°19.494 2°45.87 -999 -999 -999 -999 -999
2008-05-30 09:49 51°19.496 2°45.572 -999 -999 -999 -999 -999
2008-05-30 09:50 51°19.504 2°45.276 -999 -999 -999 -999 -999
2008-05-30 09:51 51°19.512 2°44.98 -999 -999 -999 -999 -999
2008-05-30 09:52 51°19.526 2°44.685 -999 -999 -999 -999 -999
2008-05-30 09:53 51°19.537 2°44.377 -999 -999 -999 -999 -999
2008-05-30 09:54 51°19.554 2°44.073 -999 -999 -999 -999 -999
2008-05-30 09:55 51°19.573 2°43.773 -999 -999 -999 -999 -999
2008-05-30 09:56 51°19.596 2°43.466 -999 -999 -999 -999 -999
2008-05-30 09:57 51°19.613 2°43.172 -999 -999 -999 -999 -999
2008-05-30 09:58 51°19.63 2°42.868 -999 -999 -999 -999 -999
2008-05-30 09:59 51°19.653 2°42.572 -999 -999 -999 -999 -999
2008-05-30 10:00 51°19.618 2°42.277 -999 -999 -999 -999 -999
2008-05-30 10:01 51°19.584 2°41.981 -999 -999 -999 -999 -999
2008-05-30 10:02 51°19.599 2°41.676 -999 -999 -999 -999 -999
2008-05-30 10:03 51°19.628 2°41.373 -999 -999 -999 -999 -999
2008-05-30 10:04 51°19.652 2°41.072 -999 -999 -999 -999 -999
2008-05-30 10:05 51°19.68 2°40.771 -999 -999 -999 -999 -999
2008-05-30 10:06 51°19.711 2°40.475 -999 -999 -999 -999 -999
2008-05-30 10:07 51°19.746 2°40.18 -999 -999 -999 -999 -999
2008-05-30 10:08 51°19.773 2°39.88 -999 -999 -999 -999 -999
2008-05-30 10:09 51°19.8 2°39.573 -999 -999 -999 -999 -999
2008-05-30 10:10 51°19.824 2°39.265 -999 -999 -999 -999 -999
2008-05-30 10:11 51°19.852 2°38.956 -999 -999 -999 -999 -999
2008-05-30 10:12 51°19.878 2°38.646 -999 -999 -999 -999 -999
2008-05-30 10:13 51°19.902 2°38.339 -999 -999 -999 -999 -999
2008-05-30 10:14 51°19.927 2°38.023 -999 -999 -999 -999 -999
2008-05-30 10:15 51°19.95 2°37.719 -999 -999 -999 -999 -999
2008-05-30 10:16 51°19.978 2°37.406 -999 -999 -999 -999 -999
2008-05-30 10:17 51°20.002 2°37.198 -999 -999 -999 -999 -999
2008-05-30 10:18 51°20.025 2°37.038 -999 -999 -999 -999 -999
2008-05-30 10:19 51°20.036 2°36.927 -999 -999 -999 -999 -999
2008-05-30 10:20 51°20.041 2°36.865 -999 -999 -999 -999 -999
2008-05-30 10:21 51°20.056 2°36.845 -999 -999 -999 -999 -999
2008-05-30 10:22 51°20.068 2°36.857 -999 -999 -999 -999 -999
2008-05-30 10:23 51°20.077 2°36.879 -999 -999 -999 -999 -999
2008-05-30 10:24 51°20.09 2°36.903 -999 -999 -999 -999 -999
2008-05-30 10:25 51°20.107 2°36.927 -999 -999 -999 -999 -999
2008-05-30 10:26 51°20.121 2°36.952 -999 -999 -999 -999 -999
2008-05-30 10:27 51°20.133 2°36.977 -999 -999 -999 -999 -999
2008-05-30 10:28 51°20.143 2°37.002 -999 -999 -999 -999 -999
2008-05-30 10:29 51°20.172 2°37.018 -999 -999 -999 -999 -999
2008-05-30 10:30 51°20.199 2°36.966 -999 -999 -999 -999 -999
2008-05-30 10:31 51°20.173 2°36.924 -999 -999 -999 -999 -999
2008-05-30 10:32 51°20.14 2°36.86 -999 -999 -999 -999 -999
2008-05-30 10:33 51°20.109 2°36.786 -999 -999 -999 -999 -999
2008-05-30 10:34 51°20.087 2°36.781 -999 -999 -999 -999 -999
2008-05-30 10:35 51°20.08 2°36.8 -999 -999 -999 -999 -999
2008-05-30 10:36 51°20.084 2°36.82 -999 -999 -999 -999 -999
2008-05-30 10:37 51°20.091 2°36.842 -999 -999 -999 -999 -999
2008-05-30 10:38 51°20.099 2°36.864 -999 -999 -999 -999 -999
2008-05-30 10:39 51°20.108 2°36.886 -999 -999 -999 -999 -999
2008-05-30 10:40 51°20.118 2°36.907 -999 -999 -999 -999 -999
2008-05-30 10:41 51°20.124 2°36.93 -999 -999 -999 -999 -999
2008-05-30 10:42 51°20.115 2°36.952 -999 -999 -999 -999 -999
2008-05-30 10:43 51°20.099 2°36.952 -999 -999 -999 -999 -999
2008-05-30 10:44 51°20.088 2°36.943 -999 -999 -999 -999 -999
2008-05-30 10:45 51°20.08 2°36.937 -999 -999 -999 -999 -999
2008-05-30 10:46 51°20.076 2°36.933 -999 -999 -999 -999 -999
2008-05-30 10:47 51°20.075 2°36.93 -999 -999 -999 -999 -999
2008-05-30 10:48 51°20.075 2°36.927 -999 -999 -999 -999 -999
2008-05-30 10:49 51°20.077 2°36.925 -999 -999 -999 -999 -999
2008-05-30 10:50 51°20.079 2°36.927 -999 -999 -999 -999 -999
2008-05-30 10:51 51°20.079 2°36.933 -999 -999 -999 -999 -999
2008-05-30 10:52 51°20.078 2°36.937 -999 -999 -999 -999 -999
2008-05-30 10:53 51°20.076 2°36.935 -999 -999 -999 -999 -999
2008-05-30 10:54 51°20.078 2°36.923 -999 -999 -999 -999 -999
2008-05-30 10:55 51°20.085 2°36.909 -999 -999 -999 -999 -999
2008-05-30 10:56 51°20.091 2°36.905 -999 -999 -999 -999 -999
2008-05-30 10:57 51°20.094 2°36.923 -999 -999 -999 -999 -999
2008-05-30 10:58 51°20.096 2°36.949 -999 -999 -999 -999 -999
2008-05-30 10:59 51°20.096 2°36.974 -999 -999 -999 -999 -999
2008-05-30 11:00 51°20.095 2°37 -999 -999 -999 -999 -999
2008-05-30 11:01 51°20.094 2°37.027 -999 -999 -999 -999 -999
2008-05-30 11:02 51°20.091 2°37.053 -999 -999 -999 -999 -999
2008-05-30 11:03 51°20.088 2°37.075 -999 -999 -999 -999 -999
2008-05-30 11:04 51°20.083 2°37.092 -999 -999 -999 -999 -999
2008-05-30 11:05 51°20.079 2°37.106 -999 -999 -999 -999 -999
2008-05-30 11:06 51°20.076 2°37.117 -999 -999 -999 -999 -999
2008-05-30 11:07 51°20.073 2°37.129 -999 -999 -999 -999 -999
2008-05-30 11:08 51°20.071 2°37.141 -999 -999 -999 -999 -999
2008-05-30 11:09 51°20.07 2°37.154 -999 -999 -999 -999 -999
2008-05-30 11:10 51°20.069 2°37.168 -999 -999 -999 -999 -999
2008-05-30 11:11 51°20.068 2°37.181 -999 -999 -999 -999 -999
2008-05-30 11:12 51°20.067 2°37.195 -999 -999 -999 -999 -999
2008-05-30 11:13 51°20.065 2°37.208 -999 -999 -999 -999 -999
2008-05-30 11:14 51°20.064 2°37.222 -999 -999 -999 -999 -999
2008-05-30 11:15 51°20.061 2°37.236 -999 -999 -999 -999 -999
2008-05-30 11:16 51°20.06 2°37.25 -999 -999 -999 -999 -999
2008-05-30 11:17 51°20.058 2°37.262 -999 -999 -999 -999 -999
2008-05-30 11:18 51°20.057 2°37.274 -999 -999 -999 -999 -999
2008-05-30 11:19 51°20.056 2°37.286 -999 -999 -999 -999 -999
2008-05-30 11:20 51°20.056 2°37.298 -999 -999 -999 -999 -999
2008-05-30 11:21 51°20.055 2°37.311 -999 -999 -999 -999 -999
2008-05-30 11:22 51°20.053 2°37.323 -999 -999 -999 -999 -999
2008-05-30 11:23 51°20.051 2°37.334 -999 -999 -999 -999 -999
2008-05-30 11:24 51°20.049 2°37.344 -999 -999 -999 -999 -999
2008-05-30 11:25 51°20.053 2°37.36 -999 -999 -999 -999 -999
2008-05-30 11:26 51°20.094 2°37.359 -999 -999 -999 -999 -999
2008-05-30 11:27 51°20.108 2°37.274 -999 -999 -999 -999 -999
2008-05-30 11:28 51°20.089 2°37.17 -999 -999 -999 -999 -999
2008-05-30 11:29 51°20.09 2°37.11 -999 -999 -999 -999 -999
2008-05-30 11:30 51°20.091 2°37.087 -999 -999 -999 -999 -999
2008-05-30 11:31 51°20.09 2°37.096 -999 -999 -999 -999 -999
2008-05-30 11:32 51°20.088 2°37.105 -999 -999 -999 -999 -999
2008-05-30 11:33 51°20.085 2°37.112 -999 -999 -999 -999 -999
2008-05-30 11:34 51°20.081 2°37.117 -999 -999 -999 -999 -999
2008-05-30 11:35 51°20.076 2°37.124 -999 -999 -999 -999 -999
2008-05-30 11:36 51°20.072 2°37.128 -999 -999 -999 -999 -999
2008-05-30 11:37 51°20.065 2°37.13 -999 -999 -999 -999 -999
2008-05-30 11:38 51°20.05 2°37.103 -999 -999 -999 -999 -999
2008-05-30 11:39 51°20.044 2°37.069 -999 -999 -999 -999 -999
2008-05-30 11:40 51°20.043 2°37.048 -999 -999 -999 -999 -999
2008-05-30 11:41 51°20.039 2°37.037 -999 -999 -999 -999 -999
2008-05-30 11:42 51°20.035 2°37.032 -999 -999 -999 -999 -999
2008-05-30 11:43 51°20.031 2°37.034 -999 -999 -999 -999 -999
2008-05-30 11:44 51°20.025 2°37.032 -999 -999 -999 -999 -999
2008-05-30 11:45 51°20.019 2°37.019 -999 -999 -999 -999 -999
2008-05-30 11:46 51°20.016 2°37.009 -999 -999 -999 -999 -999
2008-05-30 11:47 51°20.013 2°37.004 -999 -999 -999 -999 -999
2008-05-30 11:48 51°20.009 2°37.003 -999 -999 -999 -999 -999
2008-05-30 11:49 51°20.005 2°37.002 -999 -999 -999 -999 -999
2008-05-30 11:50 51°20.001 2°37.005 -999 -999 -999 -999 -999
2008-05-30 11:51 51°19.997 2°37.008 -999 -999 -999 -999 -999
2008-05-30 11:52 51°19.993 2°37.011 -999 -999 -999 -999 -999
2008-05-30 11:53 51°19.99 2°37.015 -999 -999 -999 -999 -999
2008-05-30 11:54 51°19.986 2°37.019 -999 -999 -999 -999 -999
2008-05-30 11:55 51°19.982 2°37.024 -999 -999 -999 -999 -999
2008-05-30 11:56 51°19.979 2°37.029 -999 -999 -999 -999 -999
2008-05-30 11:57 51°19.977 2°37.034 -999 -999 -999 -999 -999
2008-05-30 11:58 51°19.975 2°37.038 -999 -999 -999 -999 -999
2008-05-30 11:59 51°19.972 2°37.041 -999 -999 -999 -999 -999
2008-05-30 12:00 51°19.97 2°37.044 -999 -999 -999 -999 -999
2008-05-30 12:01 51°19.967 2°37.045 -999 -999 -999 -999 -999
2008-05-30 12:02 51°19.965 2°37.049 -999 -999 -999 -999 -999
2008-05-30 12:03 51°19.963 2°37.052 -999 -999 -999 -999 -999
2008-05-30 12:04 51°19.961 2°37.054 -999 -999 -999 -999 -999
2008-05-30 12:05 51°19.958 2°37.056 -999 -999 -999 -999 -999
2008-05-30 12:06 51°19.956 2°37.057 -999 -999 -999 -999 -999
2008-05-30 12:07 51°19.954 2°37.056 -999 -999 -999 -999 -999
2008-05-30 12:08 51°19.951 2°37.057 -999 -999 -999 -999 -999
2008-05-30 12:09 51°19.948 2°37.057 -999 -999 -999 -999 -999
2008-05-30 12:10 51°19.944 2°37.058 -999 -999 -999 -999 -999
2008-05-30 12:11 51°19.941 2°37.057 -999 -999 -999 -999 -999
2008-05-30 12:12 51°19.931 2°37.036 -999 -999 -999 -999 -999
2008-05-30 12:13 51°19.929 2°36.984 -999 -999 -999 -999 -999
2008-05-30 12:14 51°19.94 2°36.945 -999 -999 -999 -999 -999
2008-05-30 12:15 51°19.952 2°36.923 -999 -999 -999 -999 -999
2008-05-30 12:16 51°19.959 2°36.914 -999 -999 -999 -999 -999
2008-05-30 12:17 51°19.959 2°36.912 -999 -999 -999 -999 -999
2008-05-30 12:18 51°19.954 2°36.911 -999 -999 -999 -999 -999
2008-05-30 12:19 51°19.95 2°36.907 -999 -999 -999 -999 -999
2008-05-30 12:20 51°19.945 2°36.902 -999 -999 -999 -999 -999
2008-05-30 12:21 51°19.94 2°36.895 -999 -999 -999 -999 -999
2008-05-30 12:22 51°19.935 2°36.889 -999 -999 -999 -999 -999
2008-05-30 12:23 51°19.93 2°36.883 -999 -999 -999 -999 -999
2008-05-30 12:24 51°19.917 2°36.945 -999 -999 -999 -999 -999
2008-05-30 12:25 51°19.874 2°36.958 -999 -999 -999 -999 -999
2008-05-30 12:26 51°19.864 2°36.953 -999 -999 -999 -999 -999
2008-05-30 12:27 51°19.854 2°36.95 -999 -999 -999 -999 -999
2008-05-30 12:28 51°19.843 2°36.944 -999 -999 -999 -999 -999
2008-05-30 12:29 51°19.826 2°36.939 -999 -999 -999 -999 -999
2008-05-30 12:30 51°19.808 2°36.993 -999 -999 -999 -999 -999
2008-05-30 12:31 51°19.857 2°37.026 -999 -999 -999 -999 -999
2008-05-30 12:32 51°19.908 2°36.996 -999 -999 -999 -999 -999
2008-05-30 12:33 51°19.946 2°36.964 -999 -999 -999 -999 -999
2008-05-30 12:34 51°19.972 2°36.946 -999 -999 -999 -999 -999
2008-05-30 12:35 51°19.991 2°36.939 -999 -999 -999 -999 -999
2008-05-30 12:36 51°20.004 2°36.933 -999 -999 -999 -999 -999
2008-05-30 12:37 51°20.013 2°36.93 -999 -999 -999 -999 -999
2008-05-30 12:38 51°20.02 2°36.928 -999 -999 -999 -999 -999
2008-05-30 12:39 51°20.025 2°36.926 -999 -999 -999 -999 -999
2008-05-30 12:40 51°20.027 2°36.923 -999 -999 -999 -999 -999
2008-05-30 12:41 51°20.028 2°36.922 -999 -999 -999 -999 -999
2008-05-30 12:42 51°20.041 2°36.925 -999 -999 -999 -999 -999
2008-05-30 12:43 51°20.077 2°36.934 -999 -999 -999 -999 -999
2008-05-30 12:44 51°20.109 2°36.938 -999 -999 -999 -999 -999
2008-05-30 12:45 51°20.132 2°36.937 -999 -999 -999 -999 -999
2008-05-30 12:46 51°20.148 2°36.93 -999 -999 -999 -999 -999
2008-05-30 12:47 51°20.159 2°36.921 -999 -999 -999 -999 -999
2008-05-30 12:48 51°20.171 2°36.915 -999 -999 -999 -999 -999
2008-05-30 12:49 51°20.19 2°36.946 -999 -999 -999 -999 -999
2008-05-30 12:50 51°20.148 2°37.003 -999 -999 -999 -999 -999
2008-05-30 12:51 51°20.115 2°36.993 -999 -999 -999 -999 -999
2008-05-30 12:52 51°20.099 2°36.973 -999 -999 -999 -999 -999
2008-05-30 12:53 51°20.087 2°36.954 -999 -999 -999 -999 -999
2008-05-30 12:54 51°20.075 2°36.935 -999 -999 -999 -999 -999
2008-05-30 12:55 51°20.066 2°36.917 -999 -999 -999 -999 -999
2008-05-30 12:56 51°20.057 2°36.9 -999 -999 -999 -999 -999
2008-05-30 12:57 51°20.049 2°36.883 -999 -999 -999 -999 -999
2008-05-30 12:58 51°20.041 2°36.867 -999 -999 -999 -999 -999
2008-05-30 12:59 51°20.032 2°36.851 -999 -999 -999 -999 -999
2008-05-30 13:00 51°20.023 2°36.834 -999 -999 -999 -999 -999
2008-05-30 13:01 51°20.014 2°36.819 -999 -999 -999 -999 -999
2008-05-30 13:02 51°20 2°36.798 -999 -999 -999 -999 -999
2008-05-30 13:03 51°19.901 2°36.764 -999 -999 -999 -999 -999
2008-05-30 13:04 51°19.777 2°36.892 -999 -999 -999 -999 -999
2008-05-30 13:05 51°19.688 2°37.152 -999 -999 -999 -999 -999
2008-05-30 13:06 51°19.597 2°37.424 -999 -999 -999 -999 -999
2008-05-30 13:07 51°19.499 2°37.699 -999 -999 -999 -999 -999
2008-05-30 13:08 51°19.402 2°37.972 -999 -999 -999 -999 -999
2008-05-30 13:09 51°19.304 2°38.247 -999 -999 -999 -999 -999
2008-05-30 13:10 51°19.207 2°38.527 -999 -999 -999 -999 -999
2008-05-30 13:11 51°19.112 2°38.81 -999 -999 -999 -999 -999
2008-05-30 13:12 51°19.014 2°39.092 -999 -999 -999 -999 -999
2008-05-30 13:13 51°18.908 2°39.37 -999 -999 -999 -999 -999
2008-05-30 13:14 51°18.799 2°39.639 -999 -999 -999 -999 -999
2008-05-30 13:15 51°18.689 2°39.908 -999 -999 -999 -999 -999
2008-05-30 13:16 51°18.582 2°40.171 -999 -999 -999 -999 -999
2008-05-30 13:17 51°18.475 2°40.432 -999 -999 -999 -999 -999
2008-05-30 13:18 51°18.367 2°40.688 -999 -999 -999 -999 -999
2008-05-30 13:19 51°18.258 2°40.944 -999 -999 -999 -999 -999
2008-05-30 13:20 51°18.157 2°41.208 -999 -999 -999 -999 -999
2008-05-30 13:21 51°18.053 2°41.475 -999 -999 -999 -999 -999
2008-05-30 13:22 51°17.946 2°41.742 -999 -999 -999 -999 -999
2008-05-30 13:23 51°17.835 2°42.004 -999 -999 -999 -999 -999
2008-05-30 13:24 51°17.725 2°42.268 -999 -999 -999 -999 -999
2008-05-30 13:25 51°17.612 2°42.535 -999 -999 -999 -999 -999
2008-05-30 13:26 51°17.512 2°42.797 -999 -999 -999 -999 -999
2008-05-30 13:27 51°17.407 2°43.047 -999 -999 -999 -999 -999
2008-05-30 13:28 51°17.306 2°43.302 -999 -999 -999 -999 -999
2008-05-30 13:29 51°17.202 2°43.56 -999 -999 -999 -999 -999
2008-05-30 13:30 51°17.095 2°43.819 -999 -999 -999 -999 -999
2008-05-30 13:31 51°16.98 2°44.075 -999 -999 -999 -999 -999
2008-05-30 13:32 51°16.869 2°44.335 -999 -999 -999 -999 -999
2008-05-30 13:33 51°16.76 2°44.603 -999 -999 -999 -999 -999
2008-05-30 13:34 51°16.656 2°44.864 -999 -999 -999 -999 -999
2008-05-30 13:35 51°16.546 2°45.125 -999 -999 -999 -999 -999
2008-05-30 13:36 51°16.44 2°45.396 -999 -999 -999 -999 -999
2008-05-30 13:37 51°16.345 2°45.666 -999 -999 -999 -999 -999
2008-05-30 13:38 51°16.265 2°45.954 -999 -999 -999 -999 -999
2008-05-30 13:39 51°16.209 2°46.25 -999 -999 -999 -999 -999
2008-05-30 13:40 51°16.165 2°46.55 -999 -999 -999 -999 -999
2008-05-30 13:41 51°16.107 2°46.847 -999 -999 -999 -999 -999
2008-05-30 13:42 51°16.044 2°47.141 -999 -999 -999 -999 -999
2008-05-30 13:43 51°15.983 2°47.434 -999 -999 -999 -999 -999
2008-05-30 13:44 51°15.927 2°47.724 -999 -999 -999 -999 -999
2008-05-30 13:45 51°15.861 2°48.009 -999 -999 -999 -999 -999
2008-05-30 13:46 51°15.796 2°48.294 -999 -999 -999 -999 -999
2008-05-30 13:47 51°15.737 2°48.585 -999 -999 -999 -999 -999
2008-05-30 13:48 51°15.664 2°48.867 -999 -999 -999 -999 -999
2008-05-30 13:49 51°15.586 2°49.146 -999 -999 -999 -999 -999
2008-05-30 13:50 51°15.506 2°49.423 -999 -999 -999 -999 -999
2008-05-30 13:51 51°15.421 2°49.699 -999 -999 -999 -999 -999
2008-05-30 13:52 51°15.359 2°49.985 -999 -999 -999 -999 -999
2008-05-30 13:53 51°15.303 2°50.275 -999 -999 -999 -999 -999
2008-05-30 13:54 51°15.243 2°50.562 -999 -999 -999 -999 -999
2008-05-30 13:55 51°15.181 2°50.85 -999 -999 -999 -999 -999
2008-05-30 13:56 51°15.135 2°51.144 -999 -999 -999 -999 -999
2008-05-30 13:57 51°15.085 2°51.44 -999 -999 -999 -999 -999
2008-05-30 13:58 51°15.041 2°51.734 -999 -999 -999 -999 -999
2008-05-30 13:59 51°14.984 2°52.023 -999 -999 -999 -999 -999
2008-05-30 14:00 51°14.913 2°52.304 -999 -999 -999 -999 -999
2008-05-30 14:01 51°14.849 2°52.588 -999 -999 -999 -999 -999
2008-05-30 14:02 51°14.8 2°52.879 -999 -999 -999 -999 -999
2008-05-30 14:03 51°14.76 2°53.171 -999 -999 -999 -999 -999
2008-05-30 14:04 51°14.732 2°53.468 -999 -999 -999 -999 -999
2008-05-30 14:05 51°14.703 2°53.759 -999 -999 -999 -999 -999
2008-05-30 14:06 51°14.674 2°54.057 -999 -999 -999 -999 -999
2008-05-30 14:07 51°14.629 2°54.345 -999 -999 -999 -999 -999
2008-05-30 14:08 51°14.543 2°54.62 -999 -999 -999 -999 -999
2008-05-30 14:09 51°14.443 2°54.882 -999 -999 -999 -999 -999
2008-05-30 14:10 51°14.338 2°55.142 -999 -999 -999 -999 -999
2008-05-30 14:11 51°14.247 2°55.304 -999 -999 -999 -999 -999
2008-05-30 14:12 51°14.162 2°55.395 -999 -999 -999 -999 -999
2008-05-30 14:13 51°14.051 2°55.48 -999 -999 -999 -999 -999
2008-05-30 14:14 51°13.964 2°55.546 -999 -999 -999 -999 -999